Change the Weather History Date:

Tuesday, April 1, 2014

  Actual Average Record
Temperature  
Mean Temperature 21 °F 37 °F  
Max Temperature 34 °F 50 °F 75 °F (2012)
Min Temperature 7 °F 25 °F -14 °F (1975)
Degree Days  
Heating Degree Days 44 28  
Month to date heating degree days 44 28  
Since 1 July heating degree days 8196 7903  
Cooling Degree Days 0 0  
Month to date cooling degree days 0 0  
Year to date cooling degree days 0 0  
Moisture  
Dew Point 2 °F    
Average Humidity 53    
Maximum Humidity 80    
Minimum Humidity 25    
Precipitation  
Precipitation 0.00 in 0.02 in 0.24 in (2003)
Month to date precipitation 0.00 0.02  
Year to date precipitation 0.76 1.71  
Sea Level Pressure  
Sea Level Pressure 30.18 in    
Wind  
Wind Speed 6 mph (SE)    
Max Wind Speed 10 mph    
Max Gust Speed 16 mph    
Visibility 10 miles    
Events      
T = Trace of Precipitation, MM = Missing Value Source: NWS Daily Summary

Daily Weather History Graph

Daily Weather History Graph

Search for Another Location

Airport or City:

Trip Planner

Search our weather history database for the weather conditions in past years. The results will help you decide how hot, cold, wet, or windy it might be!

Date:

Astronomy

Apr. 01, 2014 Rise Set
Actual Time 7:32 AM CDT 8:24 PM CDT
Civil Twilight 7:01 AM CDT 8:56 PM CDT
Nautical Twilight 6:23 AM CDT 9:34 PM CDT
Astronomical Twilight 5:43 AM CDT 10:14 PM CDT
Moon 8:27 AM CDT (4/1) 11:01 PM CDT (4/1)
Length of Visible Light 13h 55m
Length of Day
12h 52m
Waxing Crescent, 5% of the Moon is Illuminated
Apr 1
Waxing Crescent
Apr 7
First Quarter
Apr 15
Full
Apr 22
Last Quarter
Apr 29
New

Hourly Weather History & Observations

Time (CDT) Temp. Windchill Dew Point Humidity Pressure Visibility Wind Dir Wind Speed Gust Speed Precip Events Conditions
12:52 AM 14.0 °F 6.5 °F 3.0 °F 62% 30.26 in 10.0 mi NNE 4.6 mph - N/A   Clear
1:52 AM 9.0 °F 0.6 °F 3.0 °F 77% 30.25 in 10.0 mi North 4.6 mph - N/A   Clear
2:52 AM 8.1 °F 1.4 °F 1.9 °F 76% 30.24 in 10.0 mi North 3.5 mph - N/A   Clear
3:52 AM 7.0 °F - 1.9 °F 80% 30.24 in 10.0 mi Calm Calm - N/A   Clear
4:52 AM 9.0 °F 2.4 °F 1.9 °F 73% 30.22 in 10.0 mi NE 3.5 mph - N/A   Clear
5:52 AM 8.1 °F 1.4 °F -0.9 °F 67% 30.21 in 10.0 mi NNE 3.5 mph - N/A   Clear
6:52 AM 8.1 °F -2.0 °F -0.0 °F 70% 30.21 in 10.0 mi NE 5.8 mph - N/A   Clear
7:52 AM 8.1 °F -0.5 °F -0.0 °F 70% 30.21 in 10.0 mi NE 4.6 mph - N/A   Clear
8:52 AM 12.0 °F 2.7 °F 1.0 °F 61% 30.22 in 10.0 mi ENE 5.8 mph - N/A   Clear
9:52 AM 14.0 °F 5.1 °F 3.9 °F 64% 30.21 in 10.0 mi Variable 5.8 mph - N/A   Clear
10:52 AM 19.0 °F 13.9 °F 3.0 °F 50% 30.20 in 10.0 mi Variable 3.5 mph - N/A   Clear
11:52 AM 21.9 °F 13.4 °F 1.0 °F 40% 30.19 in 10.0 mi ESE 6.9 mph - N/A   Clear
12:52 PM 25.0 °F 15.5 °F 1.0 °F 36% 30.18 in 10.0 mi SE 9.2 mph - N/A   Clear
1:52 PM 28.0 °F 19.3 °F 1.0 °F 31% 30.16 in 10.0 mi SE 9.2 mph - N/A   Clear
2:52 PM 30.9 °F 22.2 °F 3.9 °F 32% 30.14 in 10.0 mi SE 10.4 mph - N/A   Clear
3:52 PM 32.0 °F 24.8 °F 1.0 °F 27% 30.12 in 10.0 mi South 8.1 mph - N/A   Clear
4:52 PM 32.0 °F 24.2 °F 3.0 °F 29% 30.11 in 10.0 mi South 9.2 mph - N/A   Clear
5:52 PM 33.1 °F 26.1 °F 5.0 °F 31% 30.11 in 10.0 mi South 8.1 mph - N/A   Clear
6:52 PM 32.0 °F 25.6 °F -0.0 °F 26% 30.12 in 10.0 mi South 6.9 mph - N/A   Clear
7:52 PM 28.9 °F 21.9 °F 3.9 °F 35% 30.13 in 10.0 mi South 6.9 mph - N/A   Clear
8:52 PM 26.1 °F 16.8 °F 6.1 °F 43% 30.15 in 10.0 mi South 9.2 mph - N/A   Clear
9:52 PM 23.0 °F 13.1 °F 3.0 °F 42% 30.16 in 10.0 mi South 9.2 mph - N/A   Clear
10:52 PM 21.0 °F 16.2 °F 6.1 °F 53% 30.16 in 10.0 mi SSE 3.5 mph - N/A   Clear
11:52 PM 19.0 °F 13.9 °F 1.0 °F 46% 30.17 in 10.0 mi South 3.5 mph - N/A   Clear